Find OneWeb SL0416

NORAD ID: 51625 Int'l Des: 2022-012 Owner: ONEWEBN Country: UK Constellation: oneweb operational
LEOCIRCULARPOLARONEWEB_TYPE

リアルタイム位置

3D地球を読み込み中...

OneWeb SL0416について

説明を読み込み中...

次回通過

Passes for default location (London). Set your location on the main map for personalized predictions.

高度履歴

Loading altitude history...

軌道要素

1 51625U 22012D 26124.80294341 -.00000694 00000-0 -20234-2 0 9996
2 51625 87.8852 44.9174 0001415 79.4212 280.7075 13.10372519203640
Epoch: May 4, 2026 • Age: 11 hours

現在のステータス

高度 1234.6 km
速度 7.24 km/s
衛星直下点 -33.18°S, 88.85°E
打ち上げ日 Feb 10, 2022
運用期間 4.2 years
タイプ internet

技術仕様

分類 Payload
質量 148.00 kg
乾燥質量 140.00 kg
総質量 148.00 kg
長さ 1.30 m
直径 1.00 m
スパン 5.00 m
形状 Trapezoid+2 pan
製造者 ONEWUS
バスタイプ ARROW
フェーズステータス In Orbit
所有者/国 ONEWEBN/UK

Most Searched